Regional Weather Roundup
Issued by NWS Upton, NY

Current Version | Previous Version | Graphics & Text | Print | Product List | Glossary Off
Versions: 1 2 3 4 5 6 7 8 9 10 11 12 13 14 15 16 17 18 19 20 21 22 23 24 25 26 27 28 29 30 31 32 33 34 35 36 37 38 39 40 41 42 43 44 45 46 47 48 49
000 ASUS41 KOKX 181005 RWROKX REGIONAL WEATHER ROUNDUP NATIONAL WEATHER SERVICE NEW YORK NY 500 AM EST THU DEC 18 2014 NOTE: "FAIR" INDICATES FEW OR NO CLOUDS BELOW 12,000 FEET WITH NO SIGNIFICANT WEATHER AND/OR OBSTRUCTIONS TO VISIBILITY. NYZ071-072-176-178-NJZ106-104-181100- NEW YORK CITY METRO AREA CITY SKY/WX TMP DP RH WIND PRES REMARKS CENTRAL PARK PTCLDY 39 22 50 W8 29.93R WCI 33 LAGUARDIA APRT MOCLDY 39 24 55 NW20G29 29.91R WCI 29 KENNEDY INTL MOCLDY 40 22 48 NW20 29.93R WCI 30 NEWARK/LIBERTY PTCLDY 38 24 57 W14G24 29.94R WCI 30 BRNX BOT. GARD N/A N/A N/A N/A NW8 29.91S TETERBORO MOCLDY 38 23 55 NW13G21 29.91S WCI 30 $$ NYZ177-179-078>081-181100- LONG ISLAND NEW YORK CITY SKY/WX TMP DP RH WIND PRES REMARKS FARMINGDALE CLOUDY 39 25 57 NW12G22 29.89R WCI 32 ISLIP CLOUDY 39 26 59 NW14G22 29.86R WCI 31 SHIRLEY CLOUDY 39 27 62 NW20G25 29.88R WCI 29 WESTHAMPTON CLOUDY 39 27 62 NW14G30 29.86R WCI 31 MONTAUK POINT N/A 42 31 64 W16G25 29.82S $$ NYZ052-065-067-181100- HUDSON VALLEY CITY SKY/WX TMP DP RH WIND PRES REMARKS WHITE PLAINS CLOUDY 37 24 59 NW17G30 29.87R WCI 27 NEWBURGH MOCLDY 36 27 69 W14G25 29.90R WCI 27 MONTGOMERY CLOUDY 36 23 59 W13 29.89R WCI 27 POUGHKEEPSIE CLOUDY 38 24 57 W10 29.88R WCI 31 ALBANY FLURRIES 35 28 75 W14 29.86R WCI 26 $$ NJZ001-105-106-008-010-013-015-019>022-104-181100- NEW JERSEY CITY SKY/WX TMP DP RH WIND PRES REMARKS NEWARK/LIBERTY PTCLDY 38 24 57 W14G24 29.94R WCI 30 TETERBORO MOCLDY 38 23 55 NW13G21 29.91S WCI 30 CALDWELL PTCLDY 37 23 56 NW10 29.93R WCI 30 MORRISTOWN N/A 39 23 52 NW8 29.93S WCI 34 SOMERVILLE CLEAR 36 23 59 MISG 29.94R SUSSEX CLOUDY 36 23 59 VRB6 29.92R WCI 31 ANDOVER N/A 35 21 56 VRB7 29.93S WCI 29 TRENTON CLEAR 35 20 54 NW9G18 29.98R WCI 28 MILLVILLE CLEAR 35 19 52 NW14G24 30.04R WCI 26 ATLANTIC CITY CLEAR 34 21 59 W12 30.01R WCI 25 WRIGHTSTOWN CLEAR 35 21 57 NW12G20 29.96R WCI 26 TOMS RIVER CLEAR 36 21 55 W12 29.98R WCI 27 BELMAR PTCLDY 36 21 55 W9 29.94R WCI 29 $$ PAZ047>061-062-071-181100- EASTERN PENNSYLVANIA CITY SKY/WX TMP DP RH WIND PRES REMARKS PHILADELPHIA CLEAR 36 18 48 W10G20 30.03R WCI 28 ALLENTOWN CLEAR 34 20 56 W9 29.97S WCI 27 SCRANTON CLOUDY 34 21 59 NW24G33 29.96R WCI 21 $$ CTZ002-004>006-009-010-012-RIZ004-006-007-MAZ004-011-015-181100- SOUTHERN NEW ENGLAND IN CT CITY SKY/WX TMP DP RH WIND PRES REMARKS BRADLEY INTL FLURRIES 38 28 67 W12G26 29.81R WCI 30 HARTFORD CLOUDY 39 28 64 W10 29.84R WCI 32 DANBURY CLOUDY 36 23 59 W10 29.86S WCI 28 WTRBRY/OXFORD CLOUDY 36 25 64 W8 29.84R WCI 29 BRIDGEPORT CLOUDY 39 28 64 W8 29.87R WCI 33 MERIDEN CLOUDY 38 28 67 W9 29.85R WCI 31 NEW HAVEN CLOUDY 42 29 59 W8G17 29.86R CHESTER PTSUNNY 37 30 75 W12G21 29.82S WCI 30 GROTON CLOUDY 38 31 76 W15G22 29.80S WCI 29 WILLIMANTIC CLOUDY 39 28 64 W9G20 29.80R WCI 33 IN RI CITY SKY/WX TMP DP RH WIND PRES REMARKS PROVIDENCE CLOUDY 39 29 67 W12G22 29.76R WCI 32 BLOCK ISLAND CLOUDY 41 28 60 W18G33 29.79S WESTERLY CLOUDY 39 31 72 W8 29.80S WCI 33 IN MA CITY SKY/WX TMP DP RH WIND PRES REMARKS BOSTON CLOUDY 39 31 72 W14G22 29.72R WCI 31 WORCESTER FLURRIES 33 29 85 W15G28 29.71R WCI 23 WESTFIELD CLOUDY 38 27 64 W8 29.79R WCI 32 PROVINCETOWN CLOUDY 41 30 65 W20G25 29.70S NANTUCKET CLOUDY 41 31 67 W20G25 29.74S $$ ANZ330-335-338-340-345-350-353-355-181100- COASTAL MARINE OBSERVATIONS STATION/POSITION TIME SKY/WX TEMP WIND PRES VSBY WAVE AIR SEA DIR/SP/G HT/PER (UTC) (F) (DEG/KT/KT) (MB) (MI) (FT/S) NY HARB ENTRANCE 1000 41 46 300/ 23/ 29 1012.9 4/ 5 4S FIRE IS 1000 46 N/A 4/ 5 20S FIRE ISLAND 0900 41 50 1011.8 7/ 6 23SW MTP 1000 N/A 6/ 6 HUDSON CANYON 1000 43 55 300/ 25/ 35 1011.5 EXECUTION ROCKS 1000 40 42 290/ 16/ 23 N/A WESTERN LI SOUND 1000 40 290/ 16/ 23 N/A 2/ 3 CENTRAL LI SOUND 0900 41 45 280/ 19/ 23 N/A 3/ 4 EASTERN LI SOUND NOT AVBL ROBBINS REEF 1000 39 310/ 19/ 23 1012.0 $$ >>>>>>>>>>>>>>>>>>>>>>>>>>>> KEY <<<<<<<<<<<<<<<<<<<<<<<<<<< > < > SKY/WX - SKY CONDITION/PRESENT WEATHER < > TMP - TEMPERATURE IN FAHRENHEIT < > DP - DEWPOINT IN FAHRENHEIT < > RH - RELATIVE HUMIDITY IN PERCENT < > WIND - DIRECTION AND SPEED IN MPH < > PRES - MEAN SEA LEVEL PRESSURE IN INCHES OF HG < > WCI - WIND CHILL INDEX < > VSB - VISIBILITY IN MILES < > HX - HEAT INDEX < > TC - TEMPERATURE IN CELSIUS < > VRB - VARIABLE WIND DIRECTION < > < >>>>>>>>>>>>>>>>>>>>>>>>>>>> KEY <<<<<<<<<<<<<<<<<<<<<<<<<<<

USA.gov is the U.S. government's official web portal to all federal, state and local government web resources and services.